Weather History for KUNU - October, 2013

Change the Weather History Date:

Sunday, October 20, 2013

  Actual Average Record
Temperature  
Mean Temperature 40 °F -  
Max Temperature 47 °F 55 °F 78 °F (2000)
Min Temperature 32 °F 39 °F 17 °F (1992)
Degree Days  
Heating Degree Days 26    
Moisture  
Dew Point 38 °F    
Average Humidity 94    
Maximum Humidity 100    
Minimum Humidity 66    
Precipitation  
Precipitation 0.06 in - - ()
Sea Level Pressure  
Sea Level Pressure 29.78 in    
Wind  
Wind Speed 5 mph (South)    
Max Wind Speed 16 mph    
Max Gust Speed 18 mph    
Visibility 6 miles    
Events Fog , Rain    
Averages and records for this station are not official NWS values.
T = Trace of Precipitation, MM = Missing Value Source: NWS Daily Summary

Daily Weather History Graph

Daily Weather History Graph

Search for Another Location

Airport or City:

Trip Planner

Search our weather history database for the weather conditions in past years. The results will help you decide how hot, cold, wet, or windy it might be!

Date:

Astronomy

Oct. 20, 2013 Rise Set
Actual Time 7:15 AM CDT 6:03 PM CDT
Civil Twilight 6:46 AM CDT 6:32 PM CDT
Nautical Twilight 6:12 AM CDT 7:05 PM CDT
Astronomical Twilight 5:39 AM CDT 7:38 PM CDT
Moon 7:08 PM CDT (10/20) 8:55 AM CDT (10/20)
Length of Visible Light 11h 45m
Length of Day
10h 47m
Full, 97% of the Moon is Illuminated
Oct 20
Full
Oct 26
Last Quarter
Nov 3
New
Nov 9
First Quarter
Nov 17
Full

Hourly Weather History & Observations

Time (CDT) Temp. Windchill Dew Point Humidity Pressure Visibility Wind Dir Wind Speed Gust Speed Precip Events Conditions
12:15 AM 38.3 °F 34.8 °F 36.3 °F 93% 29.79 in 10.0 mi WSW 4.6 mph - N/A   Mostly Cloudy
12:35 AM 37.8 °F 35.3 °F 36.3 °F 95% 29.79 in 10.0 mi WSW 3.5 mph - N/A   Mostly Cloudy
12:55 AM 36.5 °F 33.9 °F 34.9 °F 94% 29.79 in 10.0 mi SW 3.5 mph - N/A   Mostly Cloudy
1:15 AM 35.4 °F 30.5 °F 34.7 °F 97% 29.79 in 5.0 mi SSW 5.8 mph - N/A   Mostly Cloudy
1:35 AM 34.9 °F 30.8 °F 34.9 °F 100% 29.79 in 4.0 mi SW 4.6 mph - N/A   Scattered Clouds
1:55 AM 34.5 °F 30.4 °F 34.5 °F 100% 29.80 in 4.0 mi WSW 4.6 mph - N/A   Scattered Clouds
2:15 AM 34.7 °F 31.8 °F 34.7 °F 100% 29.80 in 3.0 mi WSW 3.5 mph - N/A   Clear
2:35 AM 34.0 °F 31.0 °F 34.0 °F 100% 29.80 in 4.0 mi WSW 3.5 mph - N/A   Clear
2:55 AM 34.2 °F 30.0 °F 34.2 °F 100% 29.80 in 7.0 mi WSW 4.6 mph - N/A   Clear
3:15 AM 34.5 °F - 34.5 °F 100% 29.80 in 7.0 mi Calm Calm - N/A   Scattered Clouds
3:35 AM 34.5 °F - 34.5 °F 100% 29.80 in 7.0 mi Calm Calm - N/A   Clear
3:55 AM 34.3 °F - 34.3 °F 100% 29.80 in 7.0 mi Calm Calm - N/A   Clear
4:15 AM 33.1 °F 30.0 °F 33.1 °F 100% 29.81 in 2.5 mi SSW 3.5 mph - N/A   Clear
4:35 AM 32.0 °F 28.7 °F 32.0 °F 100% 29.81 in 0.8 mi SW 3.5 mph - N/A   Mist
4:55 AM 32.0 °F 28.7 °F 32.0 °F 100% 29.81 in 0.2 mi SW 3.5 mph - N/A Fog Fog
5:15 AM 32.0 °F - 32.0 °F 100% 29.81 in 0.5 mi Calm Calm - N/A Fog Fog
5:35 AM 32.4 °F 29.1 °F 32.4 °F 100% 29.82 in 0.8 mi South 3.5 mph - N/A   Mostly Cloudy
5:55 AM 32.7 °F - 32.7 °F 100% 29.82 in 0.5 mi Calm Calm - N/A Fog Fog
6:15 AM 32.9 °F - 32.9 °F 100% 29.82 in 1.8 mi Calm Calm - N/A   Overcast
6:35 AM 34.2 °F - 34.2 °F 100% 29.83 in 0.2 mi Calm Calm - N/A Fog Fog
6:55 AM 33.3 °F - 33.3 °F 100% 29.83 in 0.5 mi Calm Calm - N/A Fog Fog
7:15 AM 33.4 °F 30.4 °F 33.4 °F 100% 29.84 in 0.2 mi SSW 3.5 mph - N/A Fog Fog
7:35 AM 33.4 °F 30.4 °F 33.4 °F 100% 29.84 in 0.2 mi SSW 3.5 mph - N/A Fog Fog
7:55 AM 33.4 °F 29.1 °F 33.4 °F 100% 29.84 in 0.2 mi WSW 4.6 mph - N/A Fog Fog
8:15 AM 33.3 °F - 33.3 °F 100% 29.85 in 0.2 mi Calm Calm - N/A Fog Fog
8:35 AM 32.9 °F 29.8 °F 32.9 °F 100% 29.86 in 0.2 mi SSW 3.5 mph - N/A Fog Fog
8:55 AM 32.9 °F - 32.9 °F 100% 29.85 in 0.2 mi Calm Calm - N/A Fog Fog
9:15 AM 33.1 °F - 33.1 °F 100% 29.85 in 0.2 mi Calm Calm - N/A Fog Fog
9:35 AM 34.5 °F 31.6 °F 34.5 °F 100% 29.85 in 0.2 mi East 3.5 mph - N/A Fog Fog
9:55 AM 34.9 °F - 34.9 °F 100% 29.85 in 0.2 mi Calm Calm - N/A Fog Fog
10:15 AM 36.0 °F 32.1 °F 36.0 °F 100% 29.86 in 0.5 mi SSE 4.6 mph - N/A Fog Fog
10:35 AM 36.3 °F 32.5 °F 36.3 °F 100% 29.85 in 2.5 mi SSE 4.6 mph - N/A   Overcast
10:55 AM 37.6 °F 32.3 °F 37.6 °F 100% 29.84 in 5.0 mi SE 6.9 mph - N/A   Overcast
11:15 AM 38.3 °F 32.5 °F 38.3 °F 100% 29.84 in 7.0 mi SE 8.1 mph - N/A   Overcast
11:35 AM 39.4 °F 34.5 °F 39.4 °F 100% 29.84 in 10.0 mi SE 6.9 mph - N/A   Overcast
11:55 AM 39.7 °F 34.9 °F 39.7 °F 100% 29.83 in 10.0 mi ESE 6.9 mph - N/A   Light Drizzle
12:15 PM 40.1 °F 35.3 °F 40.1 °F 100% 29.84 in 10.0 mi SE 6.9 mph - N/A   Overcast
12:35 PM 40.5 °F 35.1 °F 40.5 °F 100% 29.82 in 10.0 mi SE 8.1 mph - N/A   Overcast
12:55 PM 41.2 °F 35.0 °F 41.2 °F 100% 29.79 in 10.0 mi ESE 10.4 mph - N/A   Overcast
1:15 PM 42.3 °F 36.3 °F 42.3 °F 100% 29.79 in 10.0 mi SE 10.4 mph - N/A   Mostly Cloudy
1:35 PM 43.9 °F 38.3 °F 39.4 °F 84% 29.78 in 10.0 mi SE 10.4 mph - N/A   Drizzle
1:55 PM 43.9 °F 38.8 °F 38.3 °F 81% 29.77 in 10.0 mi ESE 9.2 mph - N/A   Light Drizzle
2:15 PM 44.2 °F 40.3 °F 39.9 °F 85% 29.75 in 10.0 mi SE 6.9 mph - N/A Rain Light Rain
2:35 PM 44.8 °F 39.0 °F 40.1 °F 84% 29.73 in 10.0 mi ESE 11.5 mph - N/A   Mostly Cloudy
2:55 PM 45.0 °F 38.9 °F 39.0 °F 80% 29.71 in 10.0 mi ESE 12.7 mph - N/A   Mostly Cloudy
3:15 PM 45.5 °F 41.3 °F 39.2 °F 79% 29.72 in 10.0 mi SE 8.1 mph - N/A   Overcast
3:35 PM 46.4 °F 41.5 °F 39.0 °F 75% 29.71 in 10.0 mi SE 10.4 mph - N/A   Mostly Cloudy
3:55 PM 47.3 °F - 36.3 °F 66% 29.71 in 10.0 mi SE 15.0 mph 18.4 mph N/A   Scattered Clouds
4:15 PM 46.0 °F 39.6 °F 36.3 °F 69% 29.70 in 10.0 mi SE 15.0 mph - N/A Rain Light Rain
4:35 PM 45.5 °F 38.6 °F 37.9 °F 75% 29.71 in 10.0 mi SSE 16.1 mph - N/A   Light Drizzle
4:55 PM 45.3 °F 39.0 °F 38.3 °F 76% 29.71 in 10.0 mi SSE 13.8 mph - N/A Rain Light Rain
5:15 PM 45.3 °F 42.3 °F 39.7 °F 81% 29.71 in 10.0 mi South 5.8 mph 9.2 mph N/A   Drizzle
5:35 PM 45.5 °F 40.8 °F 40.8 °F 84% 29.71 in 10.0 mi SSE 9.2 mph - N/A Rain Light Rain
5:55 PM 45.1 °F 40.3 °F 41.5 °F 87% 29.71 in 7.0 mi SSE 9.2 mph - 0.02 in Rain Rain
6:15 PM 45.5 °F 40.8 °F 42.8 °F 90% 29.71 in 7.0 mi South 9.2 mph - 0.04 in Rain Rain
7:15 PM 46.6 °F - 44.6 °F 93% 29.71 in 10.0 mi South 10.4 mph - N/A   Overcast
7:35 PM 46.9 °F - 44.8 °F 92% 29.71 in 10.0 mi SSW 9.2 mph - N/A   Overcast
7:55 PM 46.0 °F 41.4 °F 44.2 °F 93% 29.71 in 10.0 mi SSW 9.2 mph - N/A   Scattered Clouds
8:15 PM 45.1 °F 40.8 °F 44.1 °F 96% 29.71 in 10.0 mi SSW 8.1 mph - N/A   Clear
8:35 PM 44.2 °F 40.3 °F 43.9 °F 99% 29.71 in 7.0 mi SSW 6.9 mph - N/A   Clear
8:55 PM 43.0 °F 38.2 °F 42.8 °F 99% 29.71 in 5.0 mi SSW 8.1 mph - N/A   Scattered Clouds
9:15 PM 44.1 °F 39.5 °F 44.1 °F 100% 29.71 in 7.0 mi SSW 8.1 mph - N/A   Mostly Cloudy
9:35 PM 45.5 °F 40.8 °F 45.5 °F 100% 29.71 in 10.0 mi SSW 9.2 mph - N/A   Overcast
9:55 PM 46.0 °F 41.0 °F 45.7 °F 99% 29.71 in 10.0 mi SSW 10.4 mph - N/A   Overcast
10:15 PM 46.0 °F 41.0 °F 44.6 °F 95% 29.71 in 10.0 mi SSW 10.4 mph - N/A   Mostly Cloudy
10:35 PM 46.4 °F 41.1 °F 44.2 °F 92% 29.72 in 10.0 mi SW 11.5 mph - N/A   Scattered Clouds
10:55 PM 46.9 °F - 43.9 °F 89% 29.72 in 10.0 mi SW 13.8 mph - N/A   Mostly Cloudy
11:15 PM 46.4 °F 41.5 °F 43.5 °F 90% 29.73 in 10.0 mi SW 10.4 mph - N/A   Scattered Clouds
11:35 PM 45.1 °F 40.8 °F 42.4 °F 90% 29.73 in 10.0 mi SW 8.1 mph - N/A   Clear
11:55 PM 45.7 °F 39.1 °F 42.1 °F 87% 29.73 in 10.0 mi WSW 15.0 mph 18.4 mph N/A   Clear